Find Starlink 36898

NORAD ID: 68002 Int'l Des: 2026-039 Owner: SPXS Country: US Constellation: starlink operational
LEOCIRCULAR

Current View

Loading 3D Globe...

About Starlink 36898

Description loading...

Upcoming Passes

Passes for default location (London). Set your location on the main map for personalized predictions.

Altitude History

Loading altitude history...

Two-Line Element Set

1 68002U 26039S 26150.83918553 .00023004 00000-0 84271-3 0 9996
2 68002 43.0014 305.2955 0001443 289.9788 70.0908 15.27585113 14267
Epoch: May 30, 2026 • Age: 17 hours

Current Status

Altitude 494.4 km
Velocity 7.62 km/s
Sub-Earth Point -40.93°S, 148.4°E
Launch Date Feb 27, 2026
Age 0.2 years
Type internet

Technical Details

Classification Payload
Mass 575.00 kg
Dry Mass 530.00 kg
Total Mass 575.00 kg
Length 0.30 m
Diameter 4.10 m
Span 29.00 m
Shape Box + pan
Manufacturer SPXS
Bus Type Starlink V2MO
Phase Status In Orbit
Owner/State SPXS/US

Most Searched